STARLINK-4038 (53150 NORAD) Tracking and Keplerian Element Data

This shows tracking and keplerian element data for the satellite.

Feedback or suggestion? Click here.




ElementValue
Catalog53150
NameSTARLINK-4038
Epoch Orbit1184
Epoch Day270.25001157
Epoch Year2022
RAAN58.0702
Inclination53.2172
Eccentricity0.0001637
Argument of Perigee43.4077
Mean Anonmoly237.122
Mean Motion15.16190332
Decay Rate-0.01071313
L11 53150U 22083U 22270.25001157 -.01071313 00000+0 -59157-1 0 9998
L22 53150 53.2172 58.0702 0001637 43.4077 237.1220 15.16190332 11842

Live tracking and technical data element details for STARLINK-4038 (NORAD 53150). STARLINK-4038 can be tracked NOW for your location showing map with azimuth and elevation plus other details from your city location.

Track the satellite on the map from your city or location and see movement details for azimuth, elevation, latitude, longitude, range, height, and movement on the map or in text.







IsCatalogInMostPopularTable: catalog: 53150, numindb: 9
Update: records affected: 1



GetName: 53150 STARLINK-4038

Hit Count: updated at: Fri, 30 Sep 2022 04:03:39 GMT